| time (UTC) | temp F | wind direction | speed knots | gust knots | rain 1hr in | rain 24hr in | rain mn in | humidity % | barometer mb |
| 20260506172507 | 68 | 360 | 0.9 | 3.5 | 0.00 | 0.00 | 0.00 | 49 | 1017.2 |
| 20260506172008 | 68 | 360 | 1.7 | 3.5 | 0.00 | 0.00 | 0.00 | 49 | 1017.1 |
| 20260506171522 | 69 | 360 | 0.9 | 2.6 | 0.00 | 0.00 | 0.00 | 47 | 1017.1 |
| 20260506171006 | 69 | 360 | 0.0 | 2.6 | 0.00 | 0.00 | 0.00 | 47 | 1017.1 |
| 20260506170511 | 70 | 360 | 0.9 | 2.6 | 0.00 | 0.00 | 0.00 | 46 | 1016.9 |
| 20260506170004 | 71 | 360 | 0.9 | 3.5 | 0.00 | 0.00 | 0.00 | 45 | 1016.9 |
| 20260506165503 | 71 | 360 | 1.7 | 3.5 | 0.00 | 0.00 | 0.00 | 44 | 1016.8 |
| 20260506165005 | 72 | 360 | 0.9 | 2.6 | 0.00 | 0.00 | 0.00 | 42 | 1016.7 |
| 20260506164509 | 72 | 360 | 0.0 | 1.7 | 0.00 | 0.00 | 0.00 | 40 | 1016.7 |
| 20260506164008 | 72 | 360 | 0.0 | 1.7 | 0.00 | 0.00 | 0.00 | 40 | 1016.7 |
| 20260506163503 | 72 | 319 | 0.0 | 2.6 | 0.00 | 0.00 | 0.00 | 39 | 1016.7 |
| 20260506163010 | 73 | 360 | 0.0 | 2.6 | 0.00 | 0.00 | 0.00 | 40 | 1016.7 |
| 20260506162503 | 73 | 360 | 0.9 | 3.5 | 0.00 | 0.00 | 0.00 | 40 | 1016.7 |
| 20260506162006 | 73 | 335 | 0.9 | 3.5 | 0.00 | 0.00 | 0.00 | 38 | 1016.7 |
| 20260506161527 | 74 | 352 | 1.7 | 2.6 | 0.00 | 0.00 | 0.00 | 39 | 1016.7 |
| 20260506161007 | 74 | 342 | 0.9 | 2.6 | 0.00 | 0.00 | 0.00 | 38 | 1016.7 |
| 20260506160509 | 74 | 352 | 0.9 | 2.6 | 0.00 | 0.00 | 0.00 | 37 | 1016.7 |
| 20260506160021 | 74 | 9 | 0.9 | 2.6 | 0.00 | 0.00 | 0.00 | 37 | 1016.7 |
| 20260506155511 | 74 | 5 | 0.9 | 2.6 | 0.00 | 0.00 | 0.00 | 37 | 1016.7 |
| 20260506155009 | 74 | 51 | 0.0 | 1.7 | 0.00 | 0.00 | 0.00 | 38 | 1016.8 |
| 20260506154508 | 74 | 15 | 0.9 | 3.5 | 0.00 | 0.00 | 0.00 | 38 | 1016.8 |
| 20260506154003 | 73 | 58 | 0.9 | 3.5 | 0.00 | 0.00 | 0.00 | 38 | 1016.8 |
| 20260506153503 | 73 | 76 | 0.0 | 3.5 | 0.00 | 0.00 | 0.00 | 39 | 1016.8 |
| 20260506153011 | 73 | 81 | 0.0 | 3.5 | 0.00 | 0.00 | 0.00 | 38 | 1016.8 |
| 20260506152503 | 73 | 75 | 0.9 | 3.5 | 0.00 | 0.00 | 0.00 | 38 | 1016.8 |
| 20260506152007 | 74 | 72 | 1.7 | 3.5 | 0.00 | 0.00 | 0.00 | 38 | 1016.9 |
| 20260506151515 | 74 | 71 | 0.9 | 3.5 | 0.00 | 0.00 | 0.00 | 38 | 1016.9 |
| 20260506151008 | 74 | 83 | 1.7 | 3.5 | 0.00 | 0.00 | 0.00 | 36 | 1016.9 |
| 20260506150506 | 74 | 84 | 1.7 | 3.5 | 0.00 | 0.00 | 0.00 | 37 | 1016.9 |
| 20260506150018 | 75 | 74 | 1.7 | 4.3 | 0.00 | 0.00 | 0.00 | 36 | 1016.9 |
| 20260506145510 | 75 | 66 | 0.9 | 4.3 | 0.00 | 0.00 | 0.00 | 36 | 1016.8 |
| 20260506145010 | 75 | 347 | 0.9 | 4.3 | 0.00 | 0.00 | 0.00 | 36 | 1016.9 |
| 20260506144522 | 75 | 342 | 0.9 | 4.3 | 0.00 | 0.00 | 0.00 | 37 | 1016.9 |
| 20260506144007 | 75 | 352 | 1.7 | 4.3 | 0.00 | 0.00 | 0.00 | 36 | 1016.9 |
| 20260506143507 | 75 | 350 | 1.7 | 3.5 | 0.00 | 0.00 | 0.00 | 36 | 1016.9 |
| 20260506143007 | 74 | 17 | 0.0 | 3.5 | 0.00 | 0.00 | 0.00 | 37 | 1016.8 |
| 20260506142503 | 74 | 88 | 1.7 | 3.5 | 0.00 | 0.00 | 0.00 | 37 | 1016.8 |
| 20260506142007 | 74 | 83 | 1.7 | 3.5 | 0.00 | 0.00 | 0.00 | 36 | 1016.8 |
| 20260506141513 | 74 | 75 | 1.7 | 6.1 | 0.00 | 0.00 | 0.00 | 37 | 1016.9 |
| 20260506141007 | 75 | 82 | 0.9 | 6.1 | 0.00 | 0.00 | 0.00 | 37 | 1016.9 |
| 20260506140504 | 75 | 82 | 2.6 | 6.1 | 0.00 | 0.00 | 0.00 | 37 | 1016.9 |
| 20260506140018 | 75 | 71 | 0.9 | 4.3 | 0.00 | 0.00 | 0.00 | 36 | 1016.9 |
| 20260506135508 | 75 | 296 | 0.0 | 4.3 | 0.00 | 0.00 | 0.00 | 36 | 1016.9 |
| 20260506135008 | 75 | 15 | 0.9 | 4.3 | 0.00 | 0.00 | 0.00 | 36 | 1016.9 |
| 20260506134522 | 75 | 5 | 1.7 | 7.8 | 0.00 | 0.00 | 0.00 | 36 | 1016.9 |
| 20260506134008 | 74 | 225 | 1.7 | 7.8 | 0.00 | 0.00 | 0.00 | 36 | 1017.0 |
| 20260506133508 | 75 | 351 | 3.5 | 7.0 | 0.00 | 0.00 | 0.00 | 35 | 1017.0 |
| 20260506133023 | 75 | 336 | 1.7 | 5.2 | 0.00 | 0.00 | 0.00 | 36 | 1017.0 |
| 20260506132512 | 75 | 337 | 1.7 | 5.2 | 0.00 | 0.00 | 0.00 | 35 | 1017.0 |
| 20260506132006 | 75 | 297 | 2.6 | 5.2 | 0.00 | 0.00 | 0.00 | 36 | 1017.0 |
| 20260506131513 | 74 | 352 | 2.6 | 5.2 | 0.00 | 0.00 | 0.00 | 36 | 1016.9 |
| 20260506131006 | 74 | 329 | 0.9 | 3.5 | 0.00 | 0.00 | 0.00 | 36 | 1017.0 |
| 20260506130504 | 74 | 76 | 0.9 | 5.2 | 0.00 | 0.00 | 0.00 | 37 | 1017.0 |
| 20260506130020 | 74 | 82 | 1.7 | 5.2 | 0.00 | 0.00 | 0.00 | 37 | 1017.1 |
| 20260506125507 | 73 | 75 | 0.9 | 3.5 | 0.00 | 0.00 | 0.00 | 39 | 1017.0 |
| 20260506125011 | 73 | 69 | 0.9 | 4.3 | 0.00 | 0.00 | 0.00 | 39 | 1017.0 |
| 20260506124526 | 73 | 94 | 1.7 | 4.3 | 0.00 | 0.00 | 0.00 | 40 | 1017.1 |
| 20260506124008 | 73 | 360 | 1.7 | 3.5 | 0.00 | 0.00 | 0.00 | 42 | 1017.1 |
| 20260506123508 | 72 | 80 | 0.9 | 4.3 | 0.00 | 0.00 | 0.00 | 43 | 1017.2 |
| 20260506123036 | 72 | 32 | 2.6 | 4.3 | 0.00 | 0.00 | 0.00 | 45 | 1017.2 |
| 20260506122509 | 72 | 94 | 1.7 | 5.2 | 0.00 | 0.00 | 0.00 | 45 | 1017.3 |
| 20260506122008 | 71 | 81 | 1.7 | 6.1 | 0.00 | 0.00 | 0.00 | 47 | 1017.3 |
| 20260506121525 | 71 | 84 | 1.7 | 6.1 | 0.00 | 0.00 | 0.00 | 45 | 1017.3 |
| 20260506121008 | 71 | 70 | 2.6 | 4.3 | 0.00 | 0.00 | 0.00 | 46 | 1017.3 |
| 20260506120505 | 71 | 75 | 0.9 | 3.5 | 0.00 | 0.00 | 0.00 | 47 | 1017.4 |
| 20260506120017 | 70 | 93 | 1.7 | 3.5 | 0.00 | 0.00 | 0.00 | 50 | 1017.5 |
| 20260506115509 | 69 | 81 | 0.9 | 4.3 | 0.00 | 0.00 | 0.00 | 50 | 1017.5 |
| 20260506115005 | 69 | 360 | 0.9 | 5.2 | 0.00 | 0.00 | 0.00 | 57 | 1017.6 |
| 20260506114524 | 69 | 360 | 2.6 | 6.1 | 0.00 | 0.00 | 0.00 | 56 | 1017.6 |
| 20260506114007 | 69 | 360 | 1.7 | 7.0 | 0.00 | 0.00 | 0.00 | 54 | 1017.7 |
| 20260506113508 | 70 | 360 | 3.5 | 7.0 | 0.00 | 0.00 | 0.00 | 51 | 1017.7 |
| 20260506113026 | 72 | 360 | 3.5 | 7.0 | 0.00 | 0.00 | 0.00 | 48 | 1017.8 |
| 20260506112508 | 74 | 47 | 1.7 | 4.3 | 0.00 | 0.00 | 0.00 | 46 | 1017.8 |
| 20260506112011 | 74 | 360 | 0.9 | 4.3 | 0.00 | 0.00 | 0.00 | 46 | 1017.8 |
| 20260506111524 | 74 | 360 | 1.7 | 4.3 | 0.00 | 0.00 | 0.00 | 45 | 1017.8 |
| 20260506111007 | 73 | 360 | 0.0 | 7.0 | 0.00 | 0.00 | 0.00 | 46 | 1017.9 |
| 20260506110507 | 72 | 360 | 0.9 | 7.0 | 0.00 | 0.00 | 0.00 | 46 | 1017.8 |
| 20260506110028 | 74 | 360 | 1.7 | 7.0 | 0.00 | 0.00 | 0.00 | 44 | 1017.9 |
| 20260506105510 | 75 | 360 | 0.9 | 4.3 | 0.00 | 0.00 | 0.00 | 42 | 1017.8 |
| 20260506105006 | 74 | 360 | 0.0 | 4.3 | 0.00 | 0.00 | 0.00 | 42 | 1017.8 |
| 20260506104516 | 74 | 360 | 0.0 | 2.6 | 0.00 | 0.00 | 0.00 | 42 | 1017.8 |
| 20260506104009 | 74 | 360 | 0.0 | 4.3 | 0.00 | 0.00 | 0.00 | 42 | 1017.9 |
| 20260506103507 | 73 | 360 | 0.9 | 4.3 | 0.00 | 0.00 | 0.00 | 42 | 1018.0 |
| 20260506103027 | 73 | 360 | 1.7 | 4.3 | 0.00 | 0.00 | 0.00 | 41 | 1018.0 |
| 20260506102511 | 72 | 360 | 0.9 | 3.5 | 0.00 | 0.00 | 0.00 | 42 | 1018.0 |
| 20260506102010 | 72 | 360 | 0.0 | 2.6 | 0.00 | 0.00 | 0.00 | 42 | 1018.1 |
| 20260506101526 | 71 | 360 | 0.9 | 5.2 | 0.00 | 0.00 | 0.00 | 45 | 1018.1 |
| 20260506101008 | 70 | 360 | 0.9 | 5.2 | 0.00 | 0.00 | 0.00 | 46 | 1018.1 |
| 20260506100507 | 69 | 360 | 0.9 | 5.2 | 0.00 | 0.00 | 0.00 | 48 | 1018.1 |
| 20260506100027 | 68 | 360 | 0.9 | 5.2 | 0.00 | 0.00 | 0.00 | 50 | 1018.1 |
| 20260506095507 | 68 | 360 | 0.9 | 6.1 | 0.00 | 0.00 | 0.00 | 53 | 1018.1 |
| 20260506095011 | 67 | 360 | 1.7 | 6.1 | 0.00 | 0.00 | 0.00 | 54 | 1018.3 |
| 20260506094534 | 66 | 114 | 2.6 | 7.0 | 0.00 | 0.00 | 0.00 | 55 | 1018.3 |
| 20260506094012 | 66 | 76 | 2.6 | 7.0 | 0.00 | 0.00 | 0.00 | 55 | 1018.1 |
| 20260506093508 | 66 | 92 | 3.5 | 7.0 | 0.00 | 0.00 | 0.00 | 54 | 1018.3 |
| 20260506093039 | 66 | 57 | 2.6 | 7.0 | 0.00 | 0.00 | 0.00 | 54 | 1018.4 |
| 20260506092506 | 66 | 360 | 3.5 | 7.0 | 0.00 | 0.00 | 0.00 | 55 | 1018.4 |
| 20260506092009 | 66 | 360 | 0.9 | 7.0 | 0.00 | 0.00 | 0.00 | 57 | 1018.5 |
| 20260506091525 | 65 | 360 | 3.5 | 7.0 | 0.00 | 0.00 | 0.00 | 56 | 1018.4 |
| 20260506091010 | 65 | 360 | 2.6 | 6.1 | 0.00 | 0.00 | 0.00 | 54 | 1018.4 |
| 20260506090508 | 65 | 360 | 3.5 | 6.1 | 0.00 | 0.00 | 0.00 | 52 | 1018.5 |
| 20260506090026 | 65 | 360 | 2.6 | 7.0 | 0.00 | 0.00 | 0.00 | 52 | 1018.5 |
| 20260506085509 | 65 | 360 | 2.6 | 7.0 | 0.00 | 0.00 | 0.00 | 53 | 1018.5 |
| 20260506085009 | 65 | 360 | 2.6 | 6.1 | 0.00 | 0.00 | 0.00 | 53 | 1018.6 |
| 20260506084527 | 65 | 57 | 2.6 | 6.1 | 0.00 | 0.00 | 0.00 | 52 | 1018.5 |
| 20260506084009 | 65 | 77 | 2.6 | 6.1 | 0.00 | 0.00 | 0.00 | 50 | 1018.5 |
| 20260506083508 | 65 | 74 | 1.7 | 4.3 | 0.00 | 0.00 | 0.00 | 49 | 1018.5 |
| 20260506083027 | 65 | 360 | 0.9 | 4.3 | 0.00 | 0.00 | 0.00 | 53 | 1018.5 |
| 20260506082515 | 65 | 81 | 0.9 | 3.5 | 0.00 | 0.00 | 0.00 | 53 | 1018.5 |
| 20260506082007 | 65 | 94 | 1.7 | 3.5 | 0.00 | 0.00 | 0.00 | 51 | 1018.5 |
| 20260506081522 | 64 | 360 | 1.7 | 4.3 | 0.00 | 0.00 | 0.00 | 55 | 1018.5 |
| 20260506081009 | 64 | 360 | 2.6 | 4.3 | 0.00 | 0.00 | 0.00 | 54 | 1018.5 |
| 20260506080508 | 64 | 360 | 1.7 | 4.3 | 0.00 | 0.00 | 0.00 | 56 | 1018.5 |
| 20260506073507 | 64 | 360 | 1.7 | 5.2 | 0.00 | 0.00 | 0.00 | 59 | 1018.4 |
| 20260506073028 | 65 | 360 | 1.7 | 5.2 | 0.00 | 0.00 | 0.00 | 58 | 1018.4 |
| 20260506072507 | 65 | 103 | 1.7 | 5.2 | 0.00 | 0.00 | 0.00 | 57 | 1018.3 |
| 20260506072014 | 66 | 360 | 1.7 | 5.2 | 0.00 | 0.00 | 0.00 | 56 | 1018.3 |
| 20260506071526 | 66 | 360 | 1.7 | 4.3 | 0.00 | 0.00 | 0.00 | 54 | 1018.3 |
| 20260506071009 | 66 | 360 | 0.9 | 3.5 | 0.00 | 0.00 | 0.00 | 55 | 1018.2 |
| 20260506070509 | 65 | 360 | 0.9 | 3.5 | 0.00 | 0.00 | 0.00 | 54 | 1018.2 |
| 20260506062511 | 62 | 360 | 1.7 | 5.2 | 0.00 | 0.00 | 0.00 | 61 | 1018.4 |
| 20260506062012 | 62 | 360 | 2.6 | 4.3 | 0.00 | 0.00 | 0.00 | 61 | 1018.4 |
| 20260506061533 | 62 | 360 | 1.7 | 5.2 | 0.00 | 0.00 | 0.00 | 60 | 1018.4 |
| 20260506061012 | 62 | 33 | 2.6 | 5.2 | 0.00 | 0.00 | 0.00 | 60 | 1018.3 |
| 20260506060511 | 62 | 360 | 1.7 | 4.3 | 0.00 | 0.00 | 0.00 | 61 | 1018.3 |
| 20260506051003 | 60 | 360 | 0.0 | 2.6 | 0.00 | 0.00 | 0.00 | 73 | 1018.2 |
| 20260506050507 | 59 | 360 | 0.9 | 2.6 | 0.00 | 0.00 | 0.00 | 75 | 1018.1 |
| 20260506045004 | 57 | 360 | 0.0 | 2.6 | 0.00 | 0.00 | 0.00 | 80 | 1018.1 |
| 20260506044522 | 56 | 360 | 0.0 | 2.6 | 0.00 | 0.00 | 0.00 | 81 | 1018.0 |
| 20260506044006 | 56 | 360 | 0.0 | 1.7 | 0.00 | 0.00 | 0.00 | 81 | 1018.0 |
| 20260506043510 | 55 | 360 | 0.0 | 2.6 | 0.00 | 0.00 | 0.00 | 81 | 1018.0 |
| 20260506043018 | 55 | 360 | 0.9 | 2.6 | 0.00 | 0.00 | 0.00 | 81 | 1018.0 |
| 20260506042508 | 55 | 360 | 0.0 | 2.6 | 0.00 | 0.00 | 0.00 | 82 | 1017.9 |
| 20260506042004 | 54 | 360 | 0.0 | 1.7 | 0.00 | 0.00 | 0.00 | 81 | 1017.9 |
| 20260506041510 | 54 | 360 | 0.0 | 2.6 | 0.00 | 0.00 | 0.00 | 81 | 1017.9 |
| 20260506041004 | 54 | 360 | 0.9 | 3.5 | 0.00 | 0.00 | 0.00 | 82 | 1017.8 |
| 20260506040507 | 54 | 360 | 1.7 | 3.5 | 0.00 | 0.00 | 0.00 | 82 | 1017.8 |
| 20260506040017 | 53 | 360 | 1.7 | 4.3 | 0.00 | 0.00 | 0.00 | 81 | 1017.7 |
| 20260506035507 | 53 | 360 | 2.6 | 4.3 | 0.00 | 0.00 | 0.00 | 81 | 1017.8 |
| 20260506035008 | 53 | 360 | 1.7 | 4.3 | 0.00 | 0.00 | 0.00 | 81 | 1017.7 |
| 20260506034522 | 53 | 360 | 2.6 | 4.3 | 0.00 | 0.00 | 0.00 | 81 | 1017.7 |
| 20260506034008 | 53 | 360 | 0.9 | 4.3 | 0.00 | 0.00 | 0.00 | 81 | 1017.7 |
| 20260506033507 | 53 | 360 | 1.7 | 5.2 | 0.00 | 0.00 | 0.00 | 80 | 1017.6 |
| 20260506033021 | 53 | 360 | 2.6 | 7.0 | 0.00 | 0.00 | 0.00 | 80 | 1017.6 |
| 20260506032504 | 53 | 360 | 3.5 | 7.0 | 0.00 | 0.00 | 0.00 | 80 | 1017.5 |
| 20260506032009 | 53 | 360 | 2.6 | 4.3 | 0.00 | 0.00 | 0.00 | 80 | 1017.4 |
| 20260506031524 | 53 | 360 | 2.6 | 4.3 | 0.00 | 0.00 | 0.00 | 80 | 1017.4 |
| 20260506031008 | 53 | 360 | 1.7 | 5.2 | 0.00 | 0.00 | 0.00 | 79 | 1017.4 |
| 20260506030504 | 53 | 360 | 1.7 | 5.2 | 0.00 | 0.00 | 0.00 | 79 | 1017.4 |
| 20260506030015 | 53 | 360 | 2.6 | 4.3 | 0.00 | 0.00 | 0.00 | 79 | 1017.4 |
| 20260506025509 | 53 | 360 | 1.7 | 4.3 | 0.00 | 0.00 | 0.00 | 79 | 1017.4 |
| 20260506025007 | 53 | 360 | 1.7 | 4.3 | 0.00 | 0.00 | 0.00 | 79 | 1017.4 |
| 20260506024528 | 53 | 360 | 1.7 | 4.3 | 0.00 | 0.00 | 0.00 | 79 | 1017.4 |
| 20260506024010 | 53 | 360 | 1.7 | 4.3 | 0.00 | 0.00 | 0.00 | 79 | 1017.4 |
| 20260506023511 | 53 | 360 | 1.7 | 4.3 | 0.00 | 0.00 | 0.00 | 79 | 1017.4 |
| 20260506023024 | 53 | 360 | 0.9 | 4.3 | 0.00 | 0.00 | 0.00 | 79 | 1017.4 |
| 20260506022508 | 53 | 360 | 1.7 | 4.3 | 0.00 | 0.00 | 0.00 | 79 | 1017.4 |
| 20260506022009 | 53 | 360 | 1.7 | 3.5 | 0.00 | 0.00 | 0.00 | 79 | 1017.4 |
| 20260506021522 | 53 | 360 | 1.7 | 4.3 | 0.00 | 0.00 | 0.00 | 79 | 1017.4 |
| 20260506021005 | 53 | 360 | 2.6 | 4.3 | 0.00 | 0.00 | 0.00 | 78 | 1017.4 |
| 20260506020505 | 53 | 360 | 2.6 | 5.2 | 0.00 | 0.00 | 0.00 | 78 | 1017.4 |
| 20260506020011 | 53 | 360 | 2.6 | 5.2 | 0.00 | 0.00 | 0.00 | 78 | 1017.4 |
| 20260506015504 | 53 | 360 | 2.6 | 4.3 | 0.00 | 0.00 | 0.00 | 78 | 1017.3 |
| 20260506015005 | 53 | 360 | 1.7 | 4.3 | 0.00 | 0.00 | 0.00 | 78 | 1017.3 |
| 20260506014516 | 53 | 360 | 2.6 | 4.3 | 0.00 | 0.00 | 0.00 | 78 | 1017.3 |
| 20260506014004 | 53 | 360 | 0.9 | 4.3 | 0.00 | 0.00 | 0.00 | 78 | 1017.4 |
| 20260506013504 | 53 | 360 | 1.7 | 5.2 | 0.00 | 0.00 | 0.00 | 78 | 1017.3 |
| 20260506013003 | 53 | 360 | 2.6 | 5.2 | 0.00 | 0.00 | 0.00 | 77 | 1017.4 |
| 20260506012504 | 53 | 360 | 2.6 | 4.3 | 0.00 | 0.00 | 0.00 | 77 | 1017.3 |
| 20260506012006 | 53 | 360 | 2.6 | 4.3 | 0.00 | 0.00 | 0.00 | 77 | 1017.3 |
| 20260506011504 | 53 | 360 | 2.6 | 4.3 | 0.00 | 0.00 | 0.00 | 77 | 1017.3 |
| 20260506011004 | 53 | 360 | 2.6 | 4.3 | 0.00 | 0.00 | 0.00 | 76 | 1017.2 |
| 20260506010504 | 54 | 360 | 1.7 | 4.3 | 0.00 | 0.00 | 0.00 | 75 | 1017.3 |
| 20260506010011 | 54 | 360 | 2.6 | 4.3 | 0.00 | 0.00 | 0.00 | 75 | 1017.3 |
| 20260506005506 | 54 | 360 | 2.6 | 5.2 | 0.00 | 0.00 | 0.00 | 75 | 1017.2 |
| 20260506005004 | 54 | 360 | 2.6 | 5.2 | 0.00 | 0.00 | 0.00 | 74 | 1017.2 |
| 20260506004516 | 54 | 360 | 1.7 | 5.2 | 0.00 | 0.00 | 0.00 | 73 | 1017.2 |
| 20260506004007 | 54 | 360 | 2.6 | 5.2 | 0.00 | 0.00 | 0.00 | 73 | 1017.3 |
| 20260506003509 | 54 | 360 | 1.7 | 4.3 | 0.00 | 0.00 | 0.00 | 73 | 1017.3 |
| 20260506003018 | 54 | 360 | 1.7 | 4.3 | 0.00 | 0.00 | 0.00 | 72 | 1017.2 |
| 20260506002506 | 54 | 360 | 2.6 | 4.3 | 0.00 | 0.00 | 0.00 | 72 | 1017.2 |
| 20260506002009 | 54 | 360 | 2.6 | 4.3 | 0.00 | 0.00 | 0.00 | 71 | 1017.2 |
| 20260506001504 | 55 | 360 | 1.7 | 3.5 | 0.00 | 0.00 | 0.00 | 71 | 1017.2 |
| 20260506001004 | 55 | 360 | 1.7 | 3.5 | 0.00 | 0.00 | 0.00 | 71 | 1017.1 |
| 20260506000504 | 55 | 360 | 1.7 | 3.5 | 0.00 | 0.00 | 0.00 | 71 | 1017.2 |
| 20260506000008 | 55 | 360 | 0.9 | 2.6 | 0.00 | 0.00 | 0.00 | 70 | 1017.2 |
| 20260505235506 | 55 | 360 | 0.9 | 1.7 | 0.00 | 0.00 | 0.00 | 70 | 1017.2 |
| 20260505235005 | 55 | 360 | 0.0 | 2.6 | 0.00 | 0.00 | 0.00 | 70 | 1017.1 |
| 20260505234531 | 55 | 360 | 0.9 | 3.5 | 0.00 | 0.00 | 0.00 | 70 | 1017.2 |
| 20260505234008 | 55 | 360 | 0.0 | 3.5 | 0.00 | 0.00 | 0.00 | 70 | 1017.2 |
| 20260505233505 | 55 | 360 | 1.7 | 4.3 | 0.00 | 0.00 | 0.00 | 70 | 1017.2 |
| 20260505233020 | 55 | 360 | 2.6 | 4.3 | 0.00 | 0.00 | 0.00 | 70 | 1017.2 |
| 20260505232506 | 55 | 360 | 1.7 | 4.3 | 0.00 | 0.00 | 0.00 | 70 | 1017.2 |
| 20260505232008 | 55 | 360 | 2.6 | 4.3 | 0.00 | 0.00 | 0.00 | 70 | 1017.2 |
| 20260505231521 | 55 | 360 | 1.7 | 4.3 | 0.00 | 0.00 | 0.00 | 70 | 1017.2 |
| 20260505231005 | 55 | 360 | 2.6 | 4.3 | 0.00 | 0.00 | 0.00 | 71 | 1017.2 |
| 20260505230505 | 55 | 360 | 2.6 | 4.3 | 0.00 | 0.00 | 0.00 | 71 | 1017.2 |
| 20260505230005 | 55 | 360 | 1.7 | 5.2 | 0.00 | 0.00 | 0.00 | 71 | 1017.2 |
| 20260505225505 | 55 | 360 | 3.5 | 5.2 | 0.00 | 0.00 | 0.00 | 71 | 1017.2 |
| 20260505225004 | 55 | 360 | 2.6 | 4.3 | 0.00 | 0.00 | 0.00 | 71 | 1017.2 |
| 20260505224508 | 55 | 360 | 1.7 | 4.3 | 0.00 | 0.00 | 0.00 | 71 | 1017.2 |
| 20260505224007 | 55 | 360 | 0.0 | 4.3 | 0.00 | 0.00 | 0.00 | 71 | 1017.2 |
| 20260505223504 | 55 | 360 | 1.7 | 2.6 | 0.00 | 0.00 | 0.00 | 72 | 1017.2 |
| 20260505223014 | 56 | 360 | 0.0 | 4.3 | 0.00 | 0.00 | 0.00 | 72 | 1017.3 |
| 20260505222506 | 56 | 360 | 1.7 | 4.3 | 0.00 | 0.00 | 0.00 | 71 | 1017.3 |
| 20260505222006 | 56 | 360 | 0.9 | 4.3 | 0.00 | 0.00 | 0.00 | 71 | 1017.4 |
| 20260505221520 | 56 | 360 | 1.7 | 4.3 | 0.00 | 0.00 | 0.00 | 71 | 1017.3 |
| 20260505221010 | 56 | 360 | 1.7 | 4.3 | 0.00 | 0.00 | 0.00 | 71 | 1017.4 |
| 20260505220510 | 56 | 360 | 1.7 | 4.3 | 0.00 | 0.00 | 0.00 | 71 | 1017.4 |
| 20260505220024 | 56 | 360 | 1.7 | 4.3 | 0.00 | 0.00 | 0.00 | 71 | 1017.4 |
| 20260505215508 | 56 | 360 | 1.7 | 4.3 | 0.00 | 0.00 | 0.00 | 71 | 1017.4 |
| 20260505215007 | 57 | 360 | 1.7 | 5.2 | 0.00 | 0.00 | 0.00 | 71 | 1017.4 |
| 20260505214509 | 57 | 360 | 2.6 | 5.2 | 0.00 | 0.00 | 0.00 | 71 | 1017.4 |
| 20260505214007 | 57 | 360 | 2.6 | 5.2 | 0.00 | 0.00 | 0.00 | 71 | 1017.4 |
| 20260505213503 | 57 | 360 | 2.6 | 5.2 | 0.00 | 0.00 | 0.00 | 70 | 1017.4 |
| 20260505213013 | 57 | 360 | 2.6 | 5.2 | 0.00 | 0.00 | 0.00 | 70 | 1017.4 |
| 20260505212504 | 57 | 360 | 3.5 | 5.2 | 0.00 | 0.00 | 0.00 | 70 | 1017.5 |
| 20260505212007 | 57 | 360 | 2.6 | 5.2 | 0.00 | 0.00 | 0.00 | 71 | 1017.5 |
| 20260505211517 | 58 | 360 | 0.9 | 4.3 | 0.00 | 0.00 | 0.00 | 71 | 1017.4 |
| 20260505211011 | 58 | 360 | 2.6 | 4.3 | 0.00 | 0.00 | 0.00 | 71 | 1017.3 |
| 20260505210505 | 58 | 360 | 2.6 | 4.3 | 0.00 | 0.00 | 0.00 | 71 | 1017.3 |
| 20260505210023 | 58 | 360 | 2.6 | 5.2 | 0.00 | 0.00 | 0.00 | 72 | 1017.4 |
| 20260505205507 | 58 | 360 | 2.6 | 5.2 | 0.00 | 0.00 | 0.00 | 72 | 1017.4 |
| 20260505205012 | 58 | 360 | 2.6 | 5.2 | 0.00 | 0.00 | 0.00 | 72 | 1017.4 |
| 20260505204528 | 58 | 360 | 2.6 | 5.2 | 0.00 | 0.00 | 0.00 | 72 | 1017.3 |
| 20260505204007 | 58 | 360 | 2.6 | 5.2 | 0.00 | 0.00 | 0.00 | 71 | 1017.3 |
| 20260505203510 | 58 | 360 | 2.6 | 5.2 | 0.00 | 0.00 | 0.00 | 71 | 1017.4 |
| 20260505203008 | 58 | 360 | 2.6 | 5.2 | 0.00 | 0.00 | 0.00 | 70 | 1017.3 |
| 20260505202504 | 58 | 360 | 2.6 | 4.3 | 0.00 | 0.00 | 0.00 | 70 | 1017.3 |
| 20260505202005 | 59 | 360 | 1.7 | 3.5 | 0.00 | 0.00 | 0.00 | 70 | 1017.2 |
| 20260505201512 | 59 | 360 | 0.9 | 3.5 | 0.00 | 0.00 | 0.00 | 69 | 1017.2 |
| 20260505201004 | 59 | 360 | 0.9 | 3.5 | 0.00 | 0.00 | 0.00 | 69 | 1017.2 |
| 20260505200510 | 59 | 360 | 0.9 | 3.5 | 0.00 | 0.00 | 0.00 | 68 | 1017.2 |
| 20260505200024 | 59 | 360 | 1.7 | 4.3 | 0.00 | 0.00 | 0.00 | 68 | 1017.2 |
| 20260505195509 | 59 | 360 | 1.7 | 4.3 | 0.00 | 0.00 | 0.00 | 67 | 1017.3 |
| 20260505195009 | 60 | 360 | 1.7 | 3.5 | 0.00 | 0.00 | 0.00 | 67 | 1017.2 |
| 20260505194524 | 60 | 360 | 1.7 | 3.5 | 0.00 | 0.00 | 0.00 | 66 | 1017.3 |
| 20260505194011 | 60 | 360 | 0.9 | 4.3 | 0.00 | 0.00 | 0.00 | 65 | 1017.3 |
| 20260505193507 | 60 | 360 | 0.9 | 4.3 | 0.00 | 0.00 | 0.00 | 65 | 1017.2 |
| 20260505193026 | 60 | 360 | 1.7 | 3.5 | 0.00 | 0.00 | 0.00 | 64 | 1017.2 |
| 20260505192512 | 60 | 360 | 1.7 | 4.3 | 0.00 | 0.00 | 0.00 | 63 | 1017.1 |
| 20260505192008 | 60 | 360 | 0.9 | 4.3 | 0.00 | 0.00 | 0.00 | 62 | 1017.1 |
| 20260505191514 | 61 | 360 | 1.7 | 5.2 | 0.00 | 0.00 | 0.00 | 61 | 1017.0 |
| 20260505191011 | 61 | 360 | 1.7 | 5.2 | 0.00 | 0.00 | 0.00 | 59 | 1017.1 |
| 20260505190504 | 61 | 360 | 1.7 | 4.3 | 0.00 | 0.00 | 0.00 | 58 | 1017.1 |
| 20260505190016 | 62 | 360 | 0.9 | 2.6 | 0.00 | 0.00 | 0.00 | 57 | 1017.1 |
| 20260505185507 | 62 | 360 | 0.9 | 1.7 | 0.00 | 0.00 | 0.00 | 56 | 1017.1 |
| 20260505185008 | 63 | 360 | 0.0 | 2.6 | 0.00 | 0.00 | 0.00 | 56 | 1017.1 |
| 20260505184526 | 63 | 360 | 0.9 | 2.6 | 0.00 | 0.00 | 0.00 | 56 | 1017.0 |
| 20260505184007 | 63 | 360 | 0.0 | 0.9 | 0.00 | 0.00 | 0.00 | 56 | 1017.0 |
| 20260505183511 | 63 | 360 | 0.0 | 0.9 | 0.00 | 0.00 | 0.00 | 55 | 1016.9 |
| 20260505183040 | 63 | 360 | 0.0 | 0.9 | 0.00 | 0.00 | 0.00 | 54 | 1016.7 |
| 20260505182511 | 63 | 360 | 0.0 | 1.7 | 0.00 | 0.00 | 0.00 | 53 | 1016.7 |
| 20260505182017 | 63 | 360 | 0.0 | 3.5 | 0.00 | 0.00 | 0.00 | 53 | 1016.6 |
| 20260505181526 | 63 | 360 | 1.7 | 3.5 | 0.00 | 0.00 | 0.00 | 54 | 1016.6 |
| 20260505181012 | 63 | 360 | 0.0 | 3.5 | 0.00 | 0.00 | 0.00 | 54 | 1016.6 |
| 20260505180509 | 62 | 360 | 0.0 | 4.3 | 0.00 | 0.00 | 0.00 | 54 | 1016.6 |
| 20260505180015 | 62 | 360 | 0.9 | 4.3 | 0.00 | 0.00 | 0.00 | 55 | 1016.5 |
| 20260505175507 | 62 | 360 | 1.7 | 4.3 | 0.00 | 0.00 | 0.00 | 56 | 1016.4 |
| 20260505175007 | 62 | 360 | 2.6 | 4.3 | 0.00 | 0.00 | 0.00 | 56 | 1016.4 |
| 20260505174520 | 63 | 360 | 2.6 | 5.2 | 0.00 | 0.00 | 0.00 | 55 | 1016.3 |
| 20260505174007 | 63 | 360 | 2.6 | 5.2 | 0.00 | 0.00 | 0.00 | 55 | 1016.4 |
| 20260505173509 | 63 | 360 | 2.6 | 5.2 | 0.00 | 0.00 | 0.00 | 54 | 1016.3 |
| 20260505173025 | 64 | 360 | 1.7 | 4.3 | 0.00 | 0.00 | 0.00 | 53 | 1016.3 |